User: anonymous   Login
Location: Goheenville
(40.9070°N, 79.3720°W)
Time: 16:14:55
(UTC-05:00)
Language:

NOAA 11 - Orbit

View from above orbital plane
View from above orbital plane
View from above satellite
View from above satellite

Ground track
Ground track

The orbit data is extracted from the following two-line orbital elements,

1 19531U 88089A   16039.21179051  .00000021  00000-0  32433-4 0  9999
2 19531  98.6182 110.0945 0011540  23.4855 336.6844 14.15178116412740
Epoch (UTC): 08 February 2016 05:04:58
Eccentricity: 0.0011540
inclination: 98.6182°
perigee height: 833 km
apogee height: 850 km
right ascension of ascending node: 110.0945°
argument of perigee: 23.4855°
revolutions per day: 14.15178116
mean anomaly at epoch: 336.6844°
orbit number at epoch: 41274

The dashed part of the orbit path shows where the satellite is in the earth's shadow,  

DLR